Wind_Speed
51 51 50 50 49 49 49 49 50 52 52 54 56 58 60 61 63 64 65 66 68 68 69 70 71 72 73 74 75 76 77 78 79 80 81 81 82 83
52 51 50 49 49 50 50 51 52 54 55 56 59 62 63 65 66 67 68 69 70 71 72 73 75 76 77 78 79 80 81 82 83 84 85 85 86 86
51 50 49 49 50 50 52 53 55 57 58 60 63 65 66 68 69 71 71 72 73 75 76 78 79 80 81 82 83 84 85 86 86 86 86 86 86 86
51 50 49 49 51 51 53 55 57 59 61 62 65 67 68 70 71 72 73 75 76 78 80 81 83 84 85 86 87 87 86 85 84 83 81 80 78 77
49 49 49 50 51 53 55 57 59 62 64 66 67 69 70 72 73 74 75 77 79 82 83 85 87 88 89 88 87 85 82 80 77 75 72 69 67 65
46 47 49 50 52 54 57 59 61 64 66 68 69 71 72 74 75 76 77 79 82 85 86 87 88 87 85 83 80 77 74 71 68 66 63 61 60 59
44 46 49 51 53 56 58 61 63 65 67 69 70 72 73 75 77 79 80 81 82 84 84 82 80 77 75 73 71 69 67 65 63 60 58 56 54 53
44 46 49 51 54 57 59 62 64 66 68 70 71 73 75 77 79 80 81 81 79 78 76 72 71 69 67 66 65 64 63 61 59 57 55 53 51 50
44 46 48 52 55 57 59 62 65 67 70 71 73 75 76 78 79 79 78 76 73 71 69 66 65 63 62 61 61 60 59 58 56 54 52 51 50 49
43 46 49 53 55 57 60 62 65 68 70 72 74 76 78 78 77 75 72 68 66 66 66 61 58 57 56 56 57 57 56 54 52 51 49 48 48 47
44 48 51 53 56 59 61 64 66 68 70 73 75 76 75 74 71 67 64 62 59 56 57 54 51 50 48 48 50 51 51 49 48 46 45 44 43 42
46 48 51 54 57 59 62 64 65 67 70 72 72 72 69 65 62 60 58 55 51 48 49 48 46 45 41 39 42 44 44 44 43 42 40 39 38 36
46 49 51 54 57 60 62 63 65 66 67 66 65 62 58 56 56 55 52 50 48 47 47 45 42 42 41 36 34 37 38 38 37 36 35 33 32 31
46 49 52 55 57 59 61 62 63 63 61 59 56 53 51 51 51 50 49 48 48 47 45 44 42 40 38 34 31 31 33 33 32 30 29 28 27 26
47 50 52 55 57 59 60 61 59 57 55 52 49 48 48 48 47 45 45 45 45 46 46 44 42 40 38 34 30 29 28 28 30 27 25 24 24 23
48 50 53 56 58 59 59 57 54 52 49 47 45 46 46 45 44 42 41 40 40 41 44 43 41 39 37 34 31 28 27 25 25 26 24 23 23 22
49 52 55 57 58 57 55 52 50 48 46 45 44 43 43 41 40 39 39 39 39 39 38 39 39 37 36 35 31 28 26 25 24 23 22 22 22 22
51 54 56 56 55 53 50 48 46 44 43 42 41 40 38 37 37 38 38 38 38 38 37 36 35 33 32 33 34 30 27 25 23 23 22 20 21 22
53 55 55 54 52 49 45 44 42 41 39 39 38 37 36 36 37 37 37 36 36 36 36 36 35 33 30 28 30 32 28 25 24 23 22 20 19 21
53 54 53 51 47 43 41 39 38 37 37 37 37 36 35 36 36 36 35 35 35 35 35 35 35 34 32 29 27 28 30 26 23 21 20 20 19 19
52 51 49 45 41 38 37 36 36 36 36 36 35 35 35 35 35 35 35 35 36 35 34 34 34 33 32 30 27 27 27 27 25 21 19 18 18 19
49 46 42 38 36 35 34 34 34 35 35 35 35 34 34 34 34 34 35 35 35 34 33 32 32 32 32 30 28 26 25 25 24 23 21 19 18 17
44 41 38 35 34 33 33 34 34 35 35 34 33 33 32 33 33 34 34 35 34 33 31 30 30 31 31 30 28 27 25 23 21 21 21 21 20 18
Wind_Direction
273 276 277 280 283 285 286 287 289 291 291 293 295 295 296 296 297 297 296 296 295 294 293 292 291 290 289 288 287 286 285 284 283 282 281 280 279 278
273 275 276 280 283 284 286 288 289 291 292 293 294 295 296 297 297 297 296 296 295 294 293 292 292 291 290 289 287 287 286 285 284 283 281 280 279 278
272 274 277 280 282 284 286 288 290 292 292 294 295 296 297 297 297 298 297 297 296 296 295 294 293 292 291 290 289 288 287 286 284 283 282 280 279 277
271 273 277 279 281 285 287 289 291 293 294 295 296 297 297 298 298 298 298 298 297 297 296 295 294 293 292 291 290 289 287 286 285 283 282 280 278 276
270 274 276 279 282 285 288 291 293 295 296 296 297 297 298 298 299 299 300 299 299 297 297 296 295 294 293 291 290 289 287 286 284 283 281 279 277 275
271 275 277 280 283 286 289 291 294 296 297 298 298 299 299 300 300 301 301 300 300 299 298 297 296 295 294 293 291 289 288 286 284 281 279 277 275 273
274 277 280 282 286 288 290 293 295 296 297 298 299 300 301 301 302 302 302 301 301 300 300 299 298 297 296 295 293 291 288 286 283 280 277 275 273 271
276 279 282 285 288 290 293 295 296 297 299 300 301 302 302 303 303 304 303 303 302 302 301 301 300 299 297 295 293 291 289 286 282 279 277 274 272 270
279 283 286 289 291 294 296 298 299 300 301 302 303 304 304 304 305 305 306 306 306 304 302 302 301 299 297 295 293 291 289 286 283 280 277 274 271 269
285 289 291 293 295 297 299 300 301 303 303 304 305 306 306 306 307 307 307 308 308 306 305 305 303 301 299 296 294 291 289 287 283 280 277 274 271 269
290 292 294 296 298 300 301 303 304 305 306 306 307 307 308 308 309 309 310 311 311 309 308 310 308 306 304 301 297 295 293 290 286 282 279 276 273 269
293 295 297 299 301 303 304 306 306 307 307 308 309 309 310 311 311 313 314 314 314 313 312 314 314 311 310 305 300 298 296 294 290 287 283 279 275 271
298 299 301 303 305 307 308 308 309 309 310 310 311 312 313 314 315 317 317 317 317 317 317 318 319 317 317 314 306 301 299 296 295 292 288 283 278 271
301 303 305 307 309 310 310 311 312 312 313 313 313 314 315 316 318 318 319 319 319 320 321 322 323 323 322 321 315 307 303 303 301 297 294 289 283 273
306 307 309 310 311 312 312 313 314 315 315 316 316 317 318 318 319 319 320 321 322 322 323 325 326 326 326 325 321 315 309 306 306 304 299 293 286 278
309 310 312 313 314 314 314 314 315 316 317 317 318 318 319 320 320 321 322 323 324 324 324 326 328 329 329 329 327 323 317 311 305 304 302 297 290 282
313 314 315 315 315 315 315 316 317 318 318 318 319 319 321 322 322 323 324 326 326 326 326 326 328 330 330 330 330 329 326 321 315 309 302 295 290 285
315 316 317 317 316 316 317 318 319 319 319 320 321 322 323 324 325 325 326 327 328 328 328 328 330 331 331 329 328 329 328 326 320 313 307 300 292 289
317 318 318 317 317 317 318 319 320 321 321 322 323 324 325 326 327 328 328 328 329 330 330 330 331 333 333 330 326 325 326 325 321 316 311 305 297 291
318 318 318 318 318 319 320 322 323 323 324 324 326 327 327 328 329 329 330 330 331 332 332 331 332 333 334 333 331 327 327 328 327 321 313 307 302 295
319 319 319 320 321 322 323 324 324 325 326 326 327 328 329 330 331 331 332 332 333 333 333 332 332 333 334 335 335 332 329 328 329 326 319 312 305 299
321 322 323 324 324 326 326 326 327 327 327 327 328 329 330 331 332 333 333 333 334 334 334 334 334 335 335 336 337 336 334 331 329 328 324 318 312 304
322 323 325 325 326 326 326 327 328 328 328 328 329 330 331 332 333 334 334 335 335 335 336 337 338 338 338 338 338 338 336 334 331 328 326 322 320 314
Height
5703 5702 5700 5698 5696 5694 5691 5688 5685 5682 5679 5674 5668 5663 5658 5654 5649 5645 5640 5635 5629 5624 5618 5613 5608 5603 5599 5594 5590 5586 5582 5577 5573 5570 5566 5563 5560 5558
5692 5691 5689 5687 5684 5682 5678 5675 5672 5669 5665 5661 5655 5649 5643 5638 5632 5627 5622 5616 5610 5604 5598 5592 5587 5581 5576 5571 5565 5561 5556 5551 5547 5542 5538 5534 5531 5528
5681 5679 5677 5675 5672 5669 5666 5662 5658 5655 5651 5647 5640 5634 5627 5621 5615 5609 5603 5596 5589 5582 5575 5568 5562 5556 5550 5544 5538 5533 5528 5522 5517 5513 5508 5504 5501 5498
5669 5668 5666 5663 5660 5657 5653 5649 5644 5640 5636 5631 5625 5618 5611 5604 5598 5591 5584 5576 5568 5559 5551 5544 5536 5529 5522 5515 5509 5503 5497 5492 5487 5483 5478 5475 5471 5467
5658 5656 5654 5652 5648 5645 5640 5635 5631 5625 5620 5615 5609 5601 5594 5585 5579 5572 5564 5555 5545 5535 5526 5518 5509 5501 5492 5485 5479 5473 5467 5462 5458 5454 5450 5447 5444 5442
5647 5645 5643 5640 5637 5632 5627 5622 5616 5610 5604 5598 5591 5584 5575 5566 5559 5552 5545 5534 5523 5510 5500 5491 5481 5472 5463 5455 5449 5443 5438 5434 5430 5428 5426 5423 5421 5419
5636 5635 5632 5629 5624 5620 5614 5608 5602 5595 5588 5581 5574 5566 5557 5548 5539 5530 5522 5513 5501 5485 5477 5465 5454 5446 5436 5428 5421 5416 5412 5409 5406 5405 5403 5402 5400 5399
5626 5624 5621 5617 5613 5607 5601 5594 5587 5579 5572 5565 5556 5547 5538 5528 5519 5508 5498 5490 5480 5465 5454 5446 5432 5425 5415 5407 5399 5393 5388 5385 5383 5382 5381 5381 5380 5380
5616 5613 5610 5605 5600 5594 5587 5579 5571 5562 5554 5546 5538 5527 5518 5509 5499 5489 5476 5465 5454 5440 5432 5429 5415 5406 5397 5388 5379 5372 5367 5363 5361 5361 5361 5361 5361 5361
5606 5603 5599 5593 5587 5580 5573 5565 5555 5546 5537 5528 5519 5508 5497 5487 5477 5467 5456 5448 5437 5422 5410 5407 5398 5389 5381 5371 5360 5352 5347 5344 5342 5341 5341 5341 5342 5342
5597 5592 5587 5581 5574 5567 5560 5551 5541 5530 5519 5508 5498 5488 5477 5466 5456 5448 5438 5429 5422 5410 5395 5389 5382 5373 5366 5356 5345 5335 5329 5326 5324 5323 5323 5324 5325 5326
5586 5581 5575 5568 5560 5552 5544 5535 5525 5514 5503 5491 5479 5468 5458 5448 5439 5430 5422 5413 5405 5397 5386 5378 5368 5358 5354 5347 5335 5325 5317 5312 5309 5308 5308 5309 5309 5310
5575 5569 5562 5554 5546 5538 5529 5519 5509 5499 5487 5476 5465 5454 5444 5435 5426 5417 5408 5399 5391 5383 5374 5366 5358 5347 5339 5334 5327 5316 5308 5302 5299 5297 5295 5296 5296 5297
5563 5556 5549 5541 5532 5523 5514 5504 5493 5483 5472 5462 5452 5442 5434 5425 5416 5407 5398 5389 5380 5371 5363 5354 5347 5338 5330 5323 5317 5310 5301 5295 5291 5289 5287 5286 5285 5286
5551 5544 5536 5528 5518 5509 5499 5489 5478 5468 5459 5450 5441 5432 5424 5416 5407 5399 5390 5381 5371 5361 5352 5344 5337 5330 5321 5314 5308 5302 5296 5290 5284 5282 5280 5278 5277 5277
5539 5532 5523 5514 5505 5495 5485 5474 5465 5456 5447 5439 5431 5424 5415 5407 5398 5390 5383 5374 5366 5357 5346 5337 5329 5322 5314 5307 5300 5295 5289 5285 5281 5276 5274 5272 5270 5270
5527 5519 5510 5500 5491 5481 5471 5462 5453 5445 5437 5430 5422 5415 5407 5398 5390 5383 5375 5367 5359 5351 5343 5333 5324 5316 5308 5301 5295 5290 5284 5280 5275 5271 5268 5267 5264 5263
5515 5506 5497 5487 5478 5468 5459 5450 5443 5435 5428 5420 5413 5406 5399 5391 5384 5376 5368 5360 5352 5344 5336 5328 5321 5314 5307 5298 5290 5284 5280 5275 5271 5266 5263 5261 5259 5257
5503 5494 5484 5475 5465 5456 5448 5440 5433 5426 5419 5412 5405 5398 5391 5384 5377 5369 5361 5354 5346 5338 5330 5322 5315 5308 5303 5297 5289 5279 5275 5271 5266 5262 5258 5256 5254 5252
5491 5481 5472 5462 5454 5446 5439 5432 5425 5418 5412 5405 5398 5391 5384 5377 5370 5363 5355 5348 5340 5333 5325 5317 5309 5302 5296 5290 5285 5277 5269 5264 5261 5257 5254 5251 5248 5246
5478 5469 5460 5451 5444 5437 5431 5424 5418 5412 5405 5399 5392 5385 5378 5371 5364 5357 5350 5342 5335 5327 5320 5313 5305 5298 5291 5285 5279 5274 5267 5260 5255 5252 5249 5246 5243 5241
5467 5458 5450 5443 5436 5430 5424 5418 5412 5406 5399 5393 5386 5379 5373 5366 5359 5352 5345 5338 5330 5323 5316 5309 5301 5294 5287 5281 5275 5269 5264 5258 5252 5247 5243 5240 5237 5235
5457 5449 5442 5436 5430 5424 5418 5412 5407 5400 5394 5387 5381 5374 5368 5361 5354 5347 5340 5333 5326 5319 5312 5305 5298 5291 5283 5277 5271 5265 5260 5254 5249 5245 5240 5235 5232 5229